User: anonymous   Login
Location: Alto Pass Reservoir
(37.5801°N, 89.3084°W)
Time: 00:39:16
(UTC+00:00)
Language:

Cosmos 2298 Rocket - Orbit

View from above orbital plane
View from above orbital plane
View from above satellite
View from above satellite

Ground track
Ground track

The orbit data is extracted from the following two-line orbital elements,

1 23432U 94083B   22146.43003331  .00000093  00000-0  42864-4 0  9990
2 23432  74.0326 238.3416 0005406 358.2770  75.9501 14.33608094434615
Epoch (UTC): 26 May 2022 10:19:14
Eccentricity: 0.0005406
inclination: 74.0326°
perigee height: 776 km
apogee height: 783 km
right ascension of ascending node: 238.3416°
argument of perigee: 358.2770°
revolutions per day: 14.33608094
mean anomaly at epoch: 75.9501°
orbit number at epoch: 43461

The dashed part of the orbit path shows where the satellite is in the earth's shadow,  

DLR